Regional Weather Roundup
Issued by NWS Lake Charles, LA

Current Version | Previous Version | Text Only | Print | Product List | Glossary On
Versions: 1 2 3 4 5 6 7 8 9 10 11 12 13 14 15 16 17 18 19 20 21 22 23 24 25 26 27 28 29 30 31 32 33 34 35 36 37 38 39 40 41 42 43 44 45 46 47 48 49 50
000
ASUS44 KLCH 281910
RWRLCH
RWRLCH
REGIONAL WEATHER ROUNDUP
NATIONAL WEATHER SERVICE LAKE CHARLES LA
100 PM CST SAT FEB 28 2015

Note: "fair" indicates few or no clouds below 12,000 feet with no
significant weather and/or obstructions to visibility.


ACROSS SOUTHEAST TEXAS

CITY           SKY/WX    TMP DP  RH WIND       PRES   REMARKS
BEAUMONT       LGT RAIN  54  39  57 E16       30.30F
BEAUMONT CITY  CLOUDY    56  40  56 E10G16    30.30F
ORANGE         CLOUDY    53  40  61 E8        30.33F
JASPER         CLOUDY    52  34  51 CALM      30.34F
$$

ACROSS CENTRAL LOUISIANA

CITY           SKY/WX    TMP DP  RH WIND       PRES   REMARKS
LEESVILLE      CLOUDY    55  36  48 E9        30.31F
FULLERTON      CLOUDY    59  34  39 VRB3      30.29F
ALEXANDRIA INT CLOUDY    54  34  46 SE7       30.33F
ESLER FIELD    CLOUDY    56  33  42 VRB6      30.34F
DERIDDER       CLOUDY    56  35  44 CALM      30.33F
OAKDALE        CLOUDY    59  38  45 SE5       30.32F
OPELOUSAS      CLOUDY    61  41  47 E9G17     30.31F
$$

ACROSS SOUTHWEST AND SOUTH CENTRAL LOUISIANA

CITY           SKY/WX    TMP DP  RH WIND       PRES   REMARKS
SULPHUR        CLOUDY    57  41  55 SE9G16    30.32F
LAKE CHARLES   CLOUDY    56  40  55 E10       30.32S
CHENNAULT INT  CLOUDY    55  39  54 E7        30.33S
CAMERON PHI    MOCLDY    55  45  67 E12       30.33F
DEQUINCY       NOT AVBL
JENNINGS       CLOUDY    58  41  51 E8        30.31F
LAFAYETTE      MOSUNNY   62  44  51 VRB6      30.31F
NEW IBERIA     MOSUNNY   64  45  49 E13       30.31F
ABBEVILLE      CLOUDY    62  45  53 E8        30.31F
PATTERSON      SUNNY     63  46  55 E13       30.32F
SALT POINT       N/A     63  47  55 SE9G18    30.29F
$$

SELECTED SITES ACROSS THE REGION

CITY           SKY/WX    TMP DP  RH WIND       PRES   REMARKS
HOUSTON BUSH   PTSUNNY   56  39  53 E13       30.26F
HOUSTON HOBBY  CLOUDY    54  43  66 E12G21    30.27F
GALVESTON      CLOUDY    55  49  80 E17G23    30.26F
COLLEGE STAT   CLOUDY    46  33  60 CALM      30.29F
CONROE         CLOUDY    48  34  58 E9        30.30F
HUNTSVILLE     CLOUDY    47  35  63 E5        30.29F
LUFKIN         CLOUDY    47  32  56 CALM      30.33F
SHREVEPORT     CLOUDY    42  27  55 E6        30.37F
MONROE         CLOUDY    47  32  56 NE8       30.40F
NATCHEZ MS     CLOUDY    61  34  36 E7        30.35F
BATON ROUGE    SUNNY     65  43  44 SE10      30.33F
N.O. INTL ARPT MOSUNNY   61  43  51 E9G18     30.34F
SLIDELL        SUNNY     65  43  44 SE9G20    30.35F
$$

MARINE REPORTS

STATION/POSITION TIME  TEMP    WIND        PRES    VSBY  WAVE
                       AIR SEA DIR/SP/G                  HT/PER
                 (UTC) (F)     (DEG/KT/KT) (MB)    (MI)  (FT/S)
BUOY 30 S HIGH I 1900   54 56   80/ 17/ 21 1023.9F         6/ 7
SEA RIM ST PARK  1900   53      90/ 14/ 19 1026.1F
PORT ARTHUR      1900      51   70/  8/ 12 1026.2F
SABINE PASS N    1900   51 50  110/ 12/ 17 1026.0F
TEXAS POINT      NOT AVBL
CALCASIEU PASS   1900   55 51  120/ 11/ 14   N/A
LK CHARLES BEACH 1900   55                 1026.9F
MARSH ISLAND     NOT AVBL
FRESH WATER LOCK 1900   56 49   70/ 12/ 17 1026.0F
AMERADA PASS     1900   60 46  100/ 15/ 19 1026.2F
$$



USA.gov is the U.S. government's official web portal to all federal, state and local government web resources and services.